Regional Weather Roundup
Issued by NWS

Home | Current Version | Previous Version | Graphics & Text | Print | Product List | Glossary On
Versions: 1 2 3 4 5 6 7 8 9 10 11 12 13 14 15 16 17 18 19 20 21 22 23 24 25 26 27 28 29 30 31 32 33 34 35 36 37 38 39 40 41 42 43 44 45 46 47 48 49 50
000
ASUS43 KLMK 281502
RWRKY
KENTUCKY REGIONAL WEATHER ROUNDUP
NATIONAL WEATHER SERVICE LOUISVILLE KY
1100 AM EDT THU APR 28 2016

NOTE "FAIR" INDICATES FEW OR NO CLOUDS BELOW 12,000 FEET
WITH NO SIGNIFICANT WEATHER AND/OR OBSTRUCTIONS TO VISIBILITY.

KYZ001>023-026-027-061>063-070>075-281600-
WESTERN AND SOUTH CENTRAL KENTUCKY

CITY           SKY/WX    TMP DP  RH WIND       PRES   REMARKS
PADUCAH        MOSUNNY   72  52  49 W12       29.87R
HENDERSON      MOSUNNY   70  57  64 SW13      29.84R
OWENSBORO      PTSUNNY   71  64  78 W13       29.85R
HOPKINSVILLE   PTSUNNY   72  65  79 W13       29.87R
BOWLING GREEN  MOSUNNY   74  66  76 SW10      29.86S
GLASGOW        NOT AVBL
$$

KYZ024-025-028>034-038-045-046-053-281600-
NORTH CENTRAL KENTUCKY

CITY           SKY/WX    TMP DP  RH WIND       PRES   REMARKS
LOUISVILLE/SDF PTSUNNY   71  62  73 W8        29.82S
LOUISVILLE/LOU CLOUDY    69  62  78 S7        29.83R
FORT KNOX      PTSUNNY   71  62  75 S9        29.82R
$$

KYZ035>037-039>044-047>052-055>060-089>105-281600-
NORTHEAST KENTUCKY

CITY           SKY/WX    TMP DP  RH WIND       PRES   REMARKS
LEXINGTON      CLOUDY    69  62  78 SW15G21   29.85S
COVINGTON      CLOUDY    64  61  90 SW6       29.83S
FRANKFORT      CLOUDY    69  62  78 SW12      29.83R
$$

KYZ054-064>069-076>088-106>120-281600-
SOUTHEAST KENTUCKY

CITY           SKY/WX    TMP DP  RH WIND       PRES   REMARKS
JACKSON        PTSUNNY   66  61  84 VRB6      29.88S
LONDON         MOSUNNY   70  63  78 W14       29.89F
SOMERSET       NOT AVBL
MIDDLESBORO    PTSUNNY   70  64  82 S6        29.92S
MONTICELLO     MOSUNNY   72  65  78 W16       29.91S
$$




USA.gov is the U.S. government's official web portal to all federal, state and local government web resources and services.